FW7499 Weather Reports


time (UTC)temp
F
wind
direction
speed
knots
gust
knots
rain 1hr
in
rain 24hr
in
rain mn
in
humidity
%
barometer
mb
20260906060012 81 102 0.0 1.7 0.00 0.00 0.00 77 1014.8
20260906055509 81 103 0.9 1.7 0.00 0.00 0.00 77 1014.8
20260906055016 81 100 0.0 2.6 0.00 0.00 0.00 77 1014.9
20260906054507 81 111 0.0 2.6 0.00 0.00 0.00 77 1014.9
20260906054011 81 100 0.0 2.6 0.00 0.00 0.00 76 1014.9
20260906053514 81 98 0.9 2.6 0.00 0.00 0.00 76 1014.9
20260906053007 81 100 0.0 5.2 0.00 0.00 0.00 76 1014.8
20260906052510 82 99 0.9 5.2 0.00 0.00 0.00 76 1014.7
20260906052010 82 111 0.9 5.2 0.00 0.00 0.00 76 1014.7
20260906051511 82 121 0.9 3.5 0.00 0.00 0.00 76 1014.7
20260906051010 82 109 0.9 3.5 0.00 0.00 0.00 75 1014.8
20260906050511 82 136 0.9 3.5 0.00 0.00 0.00 75 1014.9
20260906050026 82 155 0.9 2.6 0.00 0.00 0.00 75 1014.9
20260906045514 82 109 0.0 3.5 0.00 0.00 0.00 75 1014.9
20260906045009 82 102 0.9 3.5 0.00 0.00 0.00 74 1014.9
20260906044523 82 111 0.0 3.5 0.00 0.00 0.00 74 1014.9
20260906044016 82 103 0.9 3.5 0.00 0.00 0.00 75 1014.9
20260906043508 82 102 0.9 3.5 0.00 0.00 0.00 74 1014.9
20260906043028 82 71 0.9 2.6 0.00 0.00 0.00 74 1014.9
20260906042514 82 91 0.9 2.6 0.00 0.00 0.00 74 1015.0
20260906042016 83 98 0.9 2.6 0.00 0.00 0.00 74 1015.0
20260906041511 83 90 0.0 2.6 0.00 0.00 0.00 74 1014.9
20260906041016 83 76 0.9 2.6 0.00 0.00 0.00 74 1015.0
20260906040513 83 79 0.0 3.5 0.00 0.00 0.00 74 1015.0
20260906040028 83 96 0.9 3.5 0.00 0.00 0.00 73 1015.0
20260906035508 83 94 0.9 3.5 0.00 0.00 0.00 74 1015.0
20260906035014 84 96 0.9 3.5 0.00 0.00 0.00 73 1015.0
20260906034533 84 96 0.0 3.5 0.00 0.00 0.00 73 1014.9
20260906034010 84 111 0.0 3.5 0.00 0.00 0.00 73 1014.9
20260906033513 84 88 0.0 3.5 0.00 0.00 0.00 73 1014.9
20260906033025 84 88 0.9 3.5 0.00 0.00 0.00 73 1014.8
20260906032516 84 96 1.7 2.6 0.00 0.00 0.00 73 1014.7
20260906032011 84 108 0.9 2.6 0.00 0.00 0.00 73 1014.7
20260906031519 84 93 0.0 2.6 0.00 0.00 0.00 73 1014.7
20260906031016 84 102 0.0 2.6 0.00 0.00 0.00 72 1014.7
20260906030515 85 96 0.9 2.6 0.00 0.00 0.00 72 1014.7
20260906030020 85 226 0.0 3.5 0.00 0.00 0.00 72 1014.4
20260906025513 85 128 1.7 3.5 0.00 0.00 0.00 72 1014.2
20260906025016 85 87 0.0 1.7 0.00 0.00 0.00 72 1014.2
20260906024519 85 101 0.0 1.7 0.00 0.00 0.00 72 1014.2
20260906024003 85 129 0.0 1.7 0.00 0.00 0.00 72 1014.1
20260906023503 85 137 0.0 2.6 0.00 0.00 0.00 72 1014.0
20260906023002 85 121 0.0 3.5 0.00 0.00 0.00 72 1014.0
20260906022503 85 109 0.0 3.5 0.00 0.00 0.00 71 1014.1
20260906022003 85 110 0.0 2.6 0.00 0.00 0.00 71 1014.0
20260906021504 86 96 0.0 3.5 0.00 0.00 0.00 71 1013.9
20260906021002 85 102 0.9 3.5 0.00 0.00 0.00 71 1013.8
20260906020508 86 106 0.0 3.5 0.00 0.00 0.00 71 1013.8
20260906020002 86 100 1.7 3.5 0.00 0.00 0.00 70 1013.7
20260906015502 86 119 0.0 1.7 0.00 0.00 0.00 71 1013.5
20260906015003 86 109 0.0 1.7 0.00 0.00 0.00 71 1013.4
20260906014505 86 99 0.0 1.7 0.00 0.00 0.00 71 1013.4
20260906014003 86 119 0.0 3.5 0.00 0.00 0.00 70 1013.4
20260906013502 86 118 1.7 3.5 0.00 0.00 0.00 70 1013.3
20260906013005 86 107 0.9 2.6 0.00 0.00 0.00 70 1013.2
20260906012503 86 103 0.0 1.7 0.00 0.00 0.00 70 1013.2
20260906012002 86 103 0.9 1.7 0.00 0.00 0.00 70 1013.2
20260906011503 87 107 0.0 2.6 0.00 0.00 0.00 69 1013.1
20260906011004 87 68 0.0 2.6 0.00 0.00 0.00 68 1013.1
20260906010503 87 111 0.0 5.2 0.00 0.00 0.00 68 1013.0
20260906010002 87 111 0.9 5.2 0.00 0.00 0.00 68 1013.0
20260906005503 87 76 2.6 5.2 0.00 0.00 0.00 68 1012.9
20260906005003 88 103 0.0 5.2 0.00 0.00 0.00 67 1012.9
20260906004504 88 109 1.7 3.5 0.00 0.00 0.00 67 1013.0
20260906004004 88 100 0.0 6.1 0.00 0.00 0.00 67 1013.0
20260906003503 89 117 0.9 6.1 0.00 0.00 0.00 65 1012.9
20260906003002 89 67 1.7 5.2 0.00 0.00 0.00 65 1012.9
20260906002501 89 113 1.7 5.2 0.00 0.00 0.00 65 1012.8
20260906002002 89 103 1.7 5.2 0.00 0.00 0.00 65 1012.7
20260906001503 89 96 0.9 7.0 0.00 0.00 0.00 64 1012.5
20260906001003 89 112 1.7 7.0 0.00 0.00 0.00 64 1012.5
20260906000505 90 116 1.7 6.1 0.00 0.00 0.00 64 1012.5
20260906000004 90 128 1.7 6.1 0.00 0.00 0.00 64 1012.6
20260905235502 90 105 0.9 6.1 0.00 0.00 0.00 64 1012.6
20260905235004 90 146 0.9 3.5 0.00 0.00 0.00 64 1012.6
20260905234506 90 119 0.9 4.3 0.00 0.00 0.00 63 1012.7
20260905234003 90 201 0.9 4.3 0.00 0.00 0.00 62 1012.8
20260905233503 90 96 0.9 4.3 0.00 0.00 0.00 62 1012.6
20260905233005 91 84 0.9 6.1 0.00 0.00 0.00 63 1012.6
20260905232503 91 83 0.9 6.1 0.00 0.00 0.00 1012.7
20260905232004 91 103 1.7 7.8 0.00 0.00 0.00 1012.7
20260905231503 91 36 0.9 7.8 0.00 0.00 0.00 1012.6
20260905231002 91 74 0.9 6.1 0.00 0.00 0.00 60 1012.7
20260905230508 91 223 0.9 3.5 0.00 0.00 0.00 60 1012.7
20260905230007 92 94 0.9 2.6 0.00 0.00 0.00 60 1012.7
20260905225504 92 117 0.9 4.3 0.00 0.00 0.00 59 1012.7
20260905225005 92 110 1.7 4.3 0.00 0.00 0.00 60 1012.7
20260905224523 92 115 0.9 5.2 0.00 0.00 0.00 59 1012.7
20260905224009 92 142 0.9 5.2 0.00 0.00 0.00 59 1012.6
20260905223511 92 137 0.9 5.2 0.00 0.00 0.00 61 1012.5
20260905223007 92 90 1.7 7.0 0.00 0.00 0.00 59 1012.5
20260905222509 92 205 1.7 7.0 0.00 0.00 0.00 58 1012.3
20260905222003 92 156 0.9 7.0 0.00 0.00 0.00 59 1012.3
20260905221501 92 212 0.9 7.0 0.00 0.00 0.00 59 1012.2
20260905221001 92 246 0.0 7.0 0.00 0.00 0.00 58 1012.2
20260905220505 92 216 0.0 5.2 0.00 0.00 0.00 58 1012.2
20260905220006 92 61 1.7 5.2 0.00 0.00 0.00 58 1012.1
20260905215506 92 103 1.7 7.0 0.00 0.00 0.00 57 1012.2
20260905215006 92 157 1.7 7.8 0.00 0.00 0.00 57 1012.3
20260905214503 92 183 1.7 7.8 0.00 0.00 0.00 57 1012.3
20260905214003 92 129 1.7 7.8 0.00 0.00 0.00 57 1012.4
20260905213507 92 144 2.6 7.8 0.00 0.00 0.00 57 1012.5
20260905213003 92 109 2.6 7.0 0.00 0.00 0.00 56 1012.5
20260905212504 92 94 0.9 6.1 0.00 0.00 0.00 57 1012.6
20260905212008 92 127 2.6 6.1 0.00 0.00 0.00 56 1012.6
20260905211517 92 32 0.9 9.6 0.00 0.00 0.00 57 1012.7
20260905211004 91 96 1.7 9.6 0.00 0.00 0.00 59 1012.9
20260905210504 92 108 2.6 8.7 0.00 0.00 0.00 59 1013.0
20260905210009 92 98 2.6 8.7 0.00 0.00 0.00 58 1013.2
20260905205505 91 82 2.6 8.7 0.00 0.00 0.00 58 1013.2
20260905205002 92 115 3.5 8.7 0.00 0.00 0.00 57 1013.3
20260905204506 92 81 1.7 6.1 0.00 0.00 0.00 57 1013.4
20260905204007 92 132 0.9 6.1 0.00 0.00 0.00 55 1013.6
20260905203506 92 105 2.6 6.1 0.00 0.00 0.00 54 1013.8
20260905203004 92 90 1.7 7.8 0.00 0.00 0.00 54 1013.8
20260905202505 92 65 1.7 8.7 0.00 0.00 0.00 54 1013.9
20260905202015 92 90 0.9 8.7 0.00 0.00 0.00 56 1014.0
20260905201504 92 84 1.7 7.0 0.00 0.00 0.00 55 1014.0
20260905201002 92 107 2.6 10.4 0.00 0.00 0.00 56 1014.2
20260905200511 91 107 2.6 11.3 0.00 0.00 0.00 57 1014.4
20260905200023 91 126 1.7 11.3 0.00 0.00 0.00 1014.7
20260905195503 92 94 4.3 11.3 0.00 0.00 0.00 56 1014.7
20260905195004 91 107 2.6 9.6 0.00 0.00 0.00 56 1014.9
20260905194505 91 80 2.6 8.7 0.00 0.00 0.00 56 1014.9
20260905194002 92 59 0.0 8.7 0.00 0.00 0.00 58 1014.9
20260905193511 91 111 1.7 8.7 0.00 0.00 0.00 59 1014.9
20260905193004 91 203 0.9 7.0 0.00 0.00 0.00 60 1014.9
20260905192509 91 94 2.6 8.7 0.00 0.00 0.00 58 1015.0
20260905192007 91 130 2.6 10.4 0.00 0.00 0.00 58 1015.1
20260905191513 91 107 4.3 8.7 0.00 0.00 0.00 58 1015.0
20260905191010 91 105 2.6 7.0 0.00 0.00 0.00 59 1015.2
20260905190502 91 71 0.9 9.6 0.00 0.00 0.00 63 1015.4
20260905190012 90 134 3.5 9.6 0.00 0.00 0.00 61 1015.4
20260905185510 90 114 2.6 10.4 0.00 0.00 0.00 59 1015.5
20260905185017 90 100 3.5 11.3 0.00 0.00 0.00 60 1015.7
20260905184504 90 109 3.5 11.3 0.00 0.00 0.00 61 1015.9
20260905184003 90 292 3.5 9.6 0.00 0.00 0.00 61 1016.0
20260905183506 90 309 1.7 11.3 0.00 0.00 0.00 62 1016.1
20260905183005 89 55 4.3 11.3 0.00 0.00 0.00 63 1016.2
20260905182505 89 114 5.2 10.4 0.00 0.00 0.00 63 1016.2
20260905182009 90 128 2.6 10.4 0.00 0.00 0.00 63 1016.2
20260905181513 89 162 2.6 12.2 0.00 0.00 0.00 62 1016.3
20260905181003 89 259 3.5 14.8 0.00 0.00 0.00 63 1016.3
20260905180512 89 111 3.5 14.8 0.00 0.00 0.00 62 1016.3
20260905180008 89 76 0.9 10.4 0.00 0.00 0.00 64 1016.2
20260905175515 89 344 0.9 10.4 0.00 0.00 0.00 66 1016.1
20260905175007 88 319 2.6 8.7 0.00 0.00 0.00 65 1016.1
20260905174518 89 45 3.5 8.7 0.00 0.00 0.00 64 1016.2
20260905174013 89 94 1.7 7.8 0.00 0.00 0.00 66 1016.1
20260905173506 89 142 2.6 7.8 0.00 0.00 0.00 64 1016.1
20260905173003 89 98 1.7 11.3 0.00 0.00 0.00 64 1016.2
20260905172504 89 332 3.5 11.3 0.00 0.00 0.00 64 1016.1
20260905172009 89 352 0.9 9.6 0.00 0.00 0.00 62 1016.2
20260905171518 89 341 0.9 5.2 0.00 0.00 0.00 63 1016.2
20260905171013 90 320 2.6 4.3 0.00 0.00 0.00 62 1016.2
20260905170510 89 193 1.7 5.2 0.00 0.00 0.00 64 1016.2
20260905170016 90 323 2.6 7.0 0.00 0.00 0.00 61 1016.3
20260905165511 90 71 1.7 7.0 0.00 0.00 0.00 62 1016.2
20260905165013 90 5 1.7 4.3 0.00 0.00 0.00 61 1016.2
20260905164524 90 360 0.9 4.3 0.00 0.00 0.00 62 1016.2
20260905164006 90 339 1.7 3.5 0.00 0.00 0.00 62 1016.3
20260905163510 90 336 0.9 7.0 0.00 0.00 0.00 64 1016.2
20260905163018 90 56 0.9 7.0 0.00 0.00 0.00 64 1016.2
20260905162521 90 352 1.7 4.3 0.00 0.00 0.00 60 1016.2
20260905162007 90 352 1.7 3.5 0.00 0.00 0.00 61 1016.2
20260905161507 91 360 1.7 3.5 0.00 0.00 0.00 62 1016.2
20260905161006 90 352 1.7 3.5 0.00 0.00 0.00 62 1016.0
20260905160503 90 352 0.0 3.5 0.00 0.00 0.00 60 1015.8
20260905160030 89 340 0.9 1.7 0.00 0.00 0.00 59 1015.8
20260905155511 89 340 0.0 1.7 0.00 0.00 0.00 64 1015.8
20260905155009 88 340 0.0 1.7 0.00 0.00 0.00 62 1015.7
20260905154509 88 340 0.9 1.7 0.00 0.00 0.00 64 1015.7
20260905154012 88 344 0.9 1.7 0.00 0.00 0.00 63 1015.7
20260905153510 88 41 0.0 1.7 0.00 0.00 0.00 67 1015.7
20260905153009 87 37 0.9 1.7 0.00 0.00 0.00 65 1015.7
20260905152512 86 107 0.0 1.7 0.00 0.00 0.00 65 1015.6
20260905152009 86 107 0.0 1.7 0.00 0.00 0.00 65 1015.5
20260905151531 85 113 0.0 1.7 0.00 0.00 0.00 68 1015.5
20260905151008 84 113 0.0 1.7 0.00 0.00 0.00 67 1015.3
20260905150508 84 113 0.0 1.7 0.00 0.00 0.00 71 1015.3
20260905150011 84 113 0.0 1.7 0.00 0.00 0.00 67 1015.3
20260905145521 84 113 0.9 1.7 0.00 0.00 0.00 67 1015.3
20260905145012 84 112 0.0 1.7 0.00 0.00 0.00 70 1015.3
20260905144522 84 112 0.0 1.7 0.00 0.00 0.00 68 1015.2
20260905144009 84 111 0.9 2.6 0.00 0.00 0.00 68 1015.1
20260905143507 83 96 0.9 2.6 0.00 0.00 0.00 68 1014.9
20260905143025 83 105 0.0 2.6 0.00 0.00 0.00 69 1014.7
20260905142508 83 100 0.9 2.6 0.00 0.00 0.00 69 1014.7
20260905142014 84 115 0.9 1.7 0.00 0.00 0.00 70 1014.7
20260905141519 83 88 0.9 3.5 0.00 0.00 0.00 71 1014.7
20260905141015 82 242 0.0 3.5 0.00 0.00 0.00 71 1014.4
20260905140517 82 252 0.9 3.5 0.00 0.00 0.00 72 1014.3
20260905140012 81 223 0.0 1.7 0.00 0.00 0.00 73 1014.1
20260905135514 81 105 0.0 1.7 0.00 0.00 0.00 74 1014.3
20260905135010 81 96 0.0 5.2 0.00 0.00 0.00 74 1014.4
20260905134516 81 96 1.7 5.2 0.00 0.00 0.00 74 1014.5
20260905134011 80 96 1.7 2.6 0.00 0.00 0.00 75 1014.6
20260905133515 80 283 0.9 0.9 0.00 0.00 0.00 77 1014.7
20260905133021 79 283 0.0 0.0 0.00 0.00 0.00 80 1014.8
20260905132512 79 283 0.0 0.0 0.00 0.00 0.00 78 1014.6
20260905132017 78 283 0.0 0.0 0.00 0.00 0.00 81 1014.4
20260905131541 77 283 0.0 0.0 0.00 0.00 0.00 80 1014.2
20260905131016 77 283 0.0 0.0 0.00 0.00 0.00 80 1014.1
20260905130516 76 283 0.0 0.0 0.00 0.00 0.00 81 1014.1
20260905130027 76 283 0.0 0.0 0.00 0.00 0.00 82 1014.1
20260905125515 75 283 0.0 0.0 0.00 0.00 0.00 83 1014.0
20260905125010 75 283 0.0 0.0 0.00 0.00 0.00 83 1014.0
20260905124527 74 283 0.0 0.0 0.00 0.00 0.00 84 1014.0
20260905124007 74 283 0.0 0.0 0.00 0.00 0.00 85 1013.9
20260905123510 74 283 0.0 0.0 0.00 0.00 0.00 85 1013.8
20260905123019 74 283 0.0 0.0 0.00 0.00 0.00 84 1013.7
20260905122516 74 283 0.0 0.0 0.00 0.00 0.00 84 1013.5
20260905122012 74 283 0.0 0.0 0.00 0.00 0.00 84 1013.4
20260905121525 74 283 0.0 0.0 0.00 0.00 0.00 84 1013.4
20260905121018 74 284 0.0 0.0 0.00 0.00 0.00 84 1013.4
20260905120515 74 283 0.0 0.0 0.00 0.00 0.00 85 1013.3
20260905120018 74 283 0.0 0.0 0.00 0.00 0.00 85 1013.3
20260905115513 74 283 0.0 0.0 0.00 0.00 0.00 85 1013.2
20260905115014 74 283 0.0 0.0 0.00 0.00 0.00 86 1013.2
20260905114538 74 283 0.0 0.0 0.00 0.00 0.00 86 1013.3
20260905114015 74 283 0.0 0.0 0.00 0.00 0.00 86 1013.4
20260905113518 74 283 0.0 0.0 0.00 0.00 0.00 87 1013.4
20260905113034 74 283 0.0 0.0 0.00 0.00 0.00 87 1013.5
20260905112512 74 283 0.0 0.0 0.00 0.00 0.00 86 1013.4
20260905112002 74 283 0.0 0.0 0.00 0.00 0.00 86 1013.3
20260905111504 74 283 0.0 0.0 0.00 0.00 0.00 86 1013.1
20260905111002 74 283 0.0 0.0 0.00 0.00 0.00 87 1013.2
20260905110503 74 283 0.0 0.0 0.00 0.00 0.00 86 1013.1
20260905110003 74 283 0.0 0.0 0.00 0.00 0.00 86 1013.0
20260905105505 74 283 0.0 0.0 0.00 0.00 0.00 87 1013.1
20260905105004 74 283 0.0 0.0 0.00 0.00 0.00 86 1013.1
20260905104510 74 283 0.0 0.0 0.00 0.00 0.00 86 1013.1
20260905104002 74 283 0.0 0.0 0.00 0.00 0.00 86 1013.0
20260905103502 75 283 0.0 0.0 0.00 0.00 0.00 86 1013.1
20260905103010 75 283 0.0 0.0 0.00 0.00 0.00 86 1012.9
20260905102503 75 283 0.0 0.0 0.00 0.00 0.00 86 1012.9
20260905102006 75 283 0.0 0.0 0.00 0.00 0.00 86 1012.9
20260905101504 75 283 0.0 0.0 0.00 0.00 0.00 86 1012.8
20260905101003 75 283 0.0 0.0 0.00 0.00 0.00 86 1012.8
20260905100506 75 283 0.0 0.0 0.00 0.00 0.00 86 1012.8
20260905100010 75 283 0.0 0.0 0.00 0.00 0.00 86 1012.8
20260905095502 75 283 0.0 0.0 0.00 0.00 0.00 86 1012.8
20260905095003 75 283 0.0 0.0 0.00 0.00 0.00 86 1012.7
20260905094510 75 283 0.0 0.0 0.00 0.00 0.00 86 1012.6
20260905094004 75 283 0.0 0.0 0.00 0.00 0.00 86 1012.6
20260905093507 75 283 0.0 0.0 0.00 0.00 0.00 86 1012.5
20260905093003 75 283 0.0 0.0 0.00 0.00 0.00 85 1012.4
20260905092504 75 283 0.0 0.0 0.00 0.00 0.00 84 1012.4
20260905092001 75 283 0.0 0.0 0.00 0.00 0.00 84 1012.4
20260905091504 75 283 0.0 0.0 0.00 0.00 0.00 84 1012.4
20260905091002 75 283 0.0 0.0 0.00 0.00 0.00 84 1012.5
20260905090502 75 283 0.0 0.0 0.00 0.00 0.00 85 1012.6
20260905090004 75 283 0.0 0.0 0.00 0.00 0.00 84 1012.7
20260905085508 75 283 0.0 0.0 0.00 0.00 0.00 84 1012.7
20260905085009 76 283 0.0 0.0 0.00 0.00 0.00 84 1012.7
20260905084507 76 283 0.0 0.0 0.00 0.00 0.00 84 1012.7
20260905084004 76 283 0.0 0.0 0.00 0.00 0.00 84 1012.8
20260905083503 76 283 0.0 0.0 0.00 0.00 0.00 84 1012.9
20260905083005 76 283 0.0 0.0 0.00 0.00 0.00 84 1012.9
20260905082505 76 283 0.0 0.0 0.00 0.00 0.00 84 1012.9
20260905082004 76 283 0.0 0.0 0.00 0.00 0.00 84 1012.9
20260905081508 76 283 0.0 0.0 0.00 0.00 0.00 83 1012.9
20260905081004 76 283 0.0 0.0 0.00 0.00 0.00 83 1013.0
20260905080505 77 283 0.0 0.0 0.00 0.00 0.00 83 1013.0
20260905080008 77 283 0.0 0.0 0.00 0.00 0.00 83 1013.0
20260905075505 77 283 0.0 0.0 0.00 0.00 0.00 83 1013.1
20260905075003 77 283 0.0 0.0 0.00 0.00 0.00 83 1013.2
20260905074507 77 283 0.0 0.0 0.00 0.00 0.00 83 1013.2
20260905074011 77 283 0.0 0.0 0.00 0.00 0.00 83 1013.2
20260905073506 77 283 0.0 0.0 0.00 0.00 0.00 82 1013.2
20260905073011 77 283 0.0 0.0 0.00 0.00 0.00 82 1013.3
20260905072505 77 283 0.0 0.0 0.00 0.00 0.00 82 1013.4
20260905072004 77 283 0.0 0.0 0.00 0.00 0.00 82 1013.4
20260905071510 77 283 0.0 0.0 0.00 0.00 0.00 82 1013.4
20260905071005 78 283 0.0 0.0 0.00 0.00 0.00 81 1013.3
20260905070507 78 283 0.0 0.0 0.00 0.00 0.00 80 1013.3
20260905070013 78 283 0.0 0.0 0.00 0.00 0.00 79 1013.3
20260905065508 79 283 0.0 0.0 0.00 0.00 0.00 79 1013.4
20260905065007 78 283 0.0 0.0 0.00 0.00 0.00 80 1013.4
20260905064516 78 283 0.0 0.0 0.00 0.00 0.00 80 1013.6
20260905064006 78 283 0.0 0.0 0.00 0.00 0.00 80 1013.6
20260905063503 78 283 0.0 0.0 0.00 0.00 0.00 80 1013.5
20260905063008 79 283 0.0 0.0 0.00 0.00 0.00 79 1013.4
20260905062511 79 283 0.0 0.0 0.00 0.00 0.00 80 1013.5
20260905062008 79 283 0.0 0.0 0.00 0.00 0.00 80 1013.4
20260905061512 79 283 0.0 0.0 0.00 0.00 0.00 79 1013.5
20260905061006 79 283 0.0 0.0 0.00 0.00 0.00 80 1013.4
20260905060506 79 283 0.0 0.0 0.00 0.00 0.00 80 1013.5